GFSNE_250_rhum_051.txt.gz
RH
96 98 100 100 100 100 100 100 100 100 100 100 100 100 100 100 82 100 100 100 100 100 100 100 100 98 90 94 93 80 91 90 90 73 62 70 72 80
93 98 100 100 100 100 100 100 100 100 100 100 100 100 100 100 100 100 100 100 100 100 98 100 99 93 79 75 69 77 74 88 72 64 60 65 71 71
92 100 100 100 100 100 100 100 100 100 100 100 100 100 100 100 100 100 100 100 98 87 84 94 86 86 88 86 76 71 75 68 65 64 66 64 61 66
75 92 100 100 100 100 100 100 100 100 100 100 100 100 100 100 99 87 88 73 77 66 59 64 74 75 70 65 69 69 70 68 58 54 58 59 61 56
59 81 91 97 100 100 100 100 100 100 100 100 100 100 100 100 100 100 100 100 99 84 69 69 72 70 65 76 73 65 58 56 54 56 60 57 53 52
48 55 70 83 95 99 100 98 94 90 86 88 94 92 94 100 100 95 91 97 97 86 90 80 75 65 70 71 67 59 58 53 51 51 54 56 52 47
50 59 67 79 81 83 86 84 89 96 92 87 85 90 96 99 89 86 87 86 78 74 78 83 82 79 71 62 56 44 42 45 49 49 48 46 44 40
53 69 93 86 78 92 94 95 91 88 90 97 90 89 98 99 89 90 97 86 89 74 74 71 61 66 55 48 41 39 39 42 43 43 42 39 33 25
61 80 99 96 98 100 97 88 90 98 99 99 99 96 100 99 97 90 88 85 85 76 77 65 47 46 42 40 37 38 41 41 39 35 28 18 11 8
76 92 99 100 100 99 100 100 100 100 100 98 90 83 80 83 84 78 73 64 57 50 44 46 40 43 42 38 35 34 31 27 23 13 8 7 6 5
92 92 93 90 92 95 91 86 81 83 88 89 84 77 68 56 51 46 47 47 44 40 40 41 40 41 39 32 26 17 14 10 8 8 7 7 8 9
81 81 80 79 76 70 68 73 71 69 71 68 70 63 57 54 50 48 43 41 40 36 35 35 32 28 28 16 9 7 7 8 11 10 12 10 8 6
72 76 79 81 82 83 83 80 76 69 63 60 57 52 50 47 42 38 36 34 32 26 21 20 15 12 10 9 6 6 8 11 10 8 7 7 7 7
80 82 90 97 99 97 87 74 64 57 54 53 52 49 42 34 28 23 20 17 14 11 10 10 11 10 8 6 8 9 9 8 8 8 9 9 10 10
89 90 87 83 76 72 64 55 52 50 47 39 30 24 21 18 16 13 9 8 8 8 8 9 9 8 8 9 10 7 7 7 10 10 10 12 16 19
80 79 74 68 65 59 54 51 45 36 24 21 21 17 10 8 8 8 8 9 8 8 7 10 12 13 11 9 9 7 9 10 10 14 15 16 20 21
82 77 72 68 64 56 49 44 37 28 25 17 9 8 7 8 8 9 8 8 7 8 9 15 15 11 9 9 9 11 10 12 16 19 20 17 21 23
77 76 72 68 56 50 43 43 38 25 12 8 8 8 7 7 7 7 8 9 10 11 13 13 10 8 9 10 12 12 14 16 19 21 22 16 12 14
78 79 73 64 54 46 48 40 26 12 9 8 8 8 7 7 8 10 12 14 16 16 13 12 10 9 10 12 16 19 17 15 17 16 20 19 15 15
84 81 69 57 48 49 45 29 15 10 9 10 10 11 11 11 12 13 18 20 18 14 12 10 11 10 13 13 22 30 30 25 30 24 20 20 19 19
87 77 64 52 48 54 37 18 11 12 12 12 13 13 13 13 16 19 19 18 16 13 10 10 13 14 16 20 22 24 28 33 30 25 23 23 17 18
82 71 58 46 58 47 23 13 13 15 15 13 12 12 14 18 20 18 16 14 12 11 11 11 13 17 23 23 21 18 26 31 30 32 35 38 31 19
78 69 49 47 56 31 15 14 18 19 18 16 13 15 18 18 16 14 12 11 11 12 13 13 16 23 26 20 19 27 35 32 29 31 40 45 42 32

GFSNE_250_rhum_054.txt.gz
RH
20 24 29 37 64 77 93 99 96 100 100 100 100 100 100 100 100 100 100 100 100 100 100 100 100 100 82 75 84 79 78 72 77 84 88 91 89 85
21 24 29 35 47 67 85 99 95 100 100 100 100 100 100 100 100 100 100 95 100 100 100 98 90 100 97 94 89 88 84 76 67 72 88 85 76 78
13 15 22 35 44 51 78 99 100 100 100 100 100 100 100 100 100 100 100 100 93 100 100 100 88 94 96 88 93 81 67 73 74 77 82 84 66 67
5 8 13 29 44 53 56 81 100 100 100 100 100 100 100 100 100 100 100 100 100 100 100 98 100 100 100 97 86 98 90 86 84 90 88 76 72 73
5 5 7 14 30 50 60 67 84 100 100 100 100 100 100 100 100 100 100 100 97 100 100 100 100 100 100 99 88 78 85 90 75 88 80 81 76 77
6 7 9 11 19 40 65 82 72 85 99 100 100 100 100 97 98 95 97 96 98 97 96 93 96 97 91 87 88 90 67 64 69 75 72 64 57 53
11 12 13 16 22 44 82 97 91 93 97 98 92 91 95 99 99 97 89 86 86 87 88 81 79 81 76 68 58 56 55 52 50 53 54 52 48 47
18 19 22 28 44 67 88 98 100 100 95 100 99 100 100 94 99 99 87 84 78 61 63 56 56 57 54 48 42 38 37 42 47 51 55 55 52 47
38 37 45 56 72 83 93 97 100 100 100 100 100 100 94 80 78 87 78 78 81 72 65 53 48 44 44 43 43 43 42 42 41 41 41 39 37 34
55 64 77 86 93 96 100 100 100 100 98 95 96 91 86 81 74 67 61 55 51 47 46 46 44 43 41 36 36 35 34 32 32 32 31 29 27 24
62 63 70 77 78 83 86 85 84 81 77 72 69 64 57 50 48 48 52 52 51 47 46 44 38 39 37 29 25 24 21 18 17 16 14 13 12 10
63 66 67 65 64 65 67 67 63 59 59 61 60 58 57 58 59 59 55 46 40 36 35 34 27 25 28 15 13 11 9 10 10 10 9 9 7 7
73 72 72 72 71 71 72 71 71 75 75 68 67 65 64 61 50 40 32 27 25 23 21 20 15 12 12 11 7 6 6 7 8 8 7 7 10 10
75 81 81 83 88 87 83 75 74 70 66 67 62 55 41 29 23 22 21 18 14 10 9 8 9 8 8 8 8 6 6 6 9 10 11 9 9 8
78 84 85 89 90 86 79 72 72 65 63 61 45 31 30 30 24 12 9 8 7 7 8 8 8 8 8 7 6 6 8 8 11 10 8 7 10 11
80 80 84 87 84 78 74 71 68 64 57 40 36 35 28 14 9 8 8 8 7 6 6 7 7 8 7 7 8 9 11 9 7 9 8 10 13 15
80 84 91 85 79 77 76 70 64 58 44 39 36 25 12 9 8 8 8 8 8 7 7 9 10 11 11 9 11 13 11 8 9 10 13 15 18 22
85 86 84 79 80 79 73 69 57 49 43 42 33 15 10 10 10 11 11 11 11 11 10 11 14 16 15 11 13 11 9 9 11 14 19 18 22 36
81 81 82 79 80 76 68 60 55 49 48 38 18 11 12 12 12 11 10 11 10 12 13 16 18 19 13 11 10 13 10 12 12 20 26 24 21 22
78 80 81 78 77 71 62 56 52 53 48 24 13 13 16 14 12 11 11 12 15 18 17 16 18 16 14 10 9 14 14 18 21 19 19 26 25 20
83 81 82 80 76 64 56 57 55 54 33 14 13 16 18 18 17 14 14 16 18 17 14 12 12 12 11 11 12 16 25 24 21 21 32 34 26 25
88 84 82 81 70 54 58 61 58 37 17 15 16 17 17 18 19 18 15 15 14 12 12 11 9 11 12 13 13 24 30 27 25 31 35 35 29 24
88 86 84 73 57 56 64 62 38 17 15 16 16 16 16 15 16 16 13 11 10 10 11 10 10 13 12 16 22 23 21 29 30 30 30 34 35 38

GFSNE_250_rhum_057.txt.gz
RH
16 18 19 22 22 26 34 42 52 62 81 89 100 100 100 100 100 100 100 100 100 100 100 100 100 100 97 100 92 99 100 100 100 95 100 80 83 87
24 26 21 17 14 18 28 32 51 76 100 100 100 100 100 100 100 100 100 100 100 100 100 100 100 100 100 100 99 100 100 97 100 100 100 99 89 84
25 20 13 7 6 9 11 17 36 100 100 100 100 100 100 100 100 100 100 100 100 100 100 100 100 100 100 100 100 100 100 100 100 100 97 83 84 86
23 14 9 8 6 6 10 17 34 77 86 100 100 100 96 100 100 100 100 100 100 100 100 100 100 100 100 100 100 100 100 100 99 90 86 100 97 90
22 18 10 9 9 7 8 16 28 42 60 100 100 100 100 96 100 100 100 100 100 100 100 100 100 100 100 100 100 98 88 87 75 80 86 84 90 89
26 21 18 15 12 10 12 17 23 38 52 97 100 100 100 100 100 100 100 100 100 100 100 100 100 96 87 79 83 86 88 86 83 75 73 66 63 59
26 24 25 24 19 16 16 19 21 32 51 93 92 100 100 100 100 100 100 98 99 90 80 84 84 80 82 76 62 59 54 52 53 52 51 52 53 55
38 37 34 30 29 33 41 44 51 71 83 90 100 100 100 100 99 100 97 91 87 79 75 70 67 64 56 51 50 50 52 54 56 56 55 55 54 52
43 46 48 46 46 47 48 54 65 75 84 92 96 98 97 97 94 86 82 82 77 66 61 54 56 59 63 61 57 52 49 48 47 45 44 43 42 42
56 53 50 51 57 60 63 68 73 77 80 80 85 85 84 82 79 76 73 71 70 70 68 63 60 54 47 42 40 38 37 36 35 34 33 32 31 30
57 58 58 59 63 66 65 65 70 74 76 76 76 75 73 70 67 66 70 74 72 67 59 47 42 40 36 31 28 24 22 19 18 18 18 18 17 15
64 67 65 63 64 67 74 82 83 80 80 78 73 70 71 71 74 78 73 61 50 44 39 34 28 27 26 20 18 16 14 14 14 14 12 11 9 7
68 67 66 69 71 73 76 83 87 84 84 82 80 78 76 72 72 61 36 28 29 29 28 26 20 17 14 11 7 6 6 6 7 7 8 9 8 7
72 73 76 76 76 78 80 80 76 73 73 75 76 73 68 66 42 31 30 32 26 17 11 9 8 8 8 7 7 5 6 6 7 8 8 8 7 7
78 78 79 77 74 77 78 76 73 70 73 72 71 67 62 40 33 36 33 19 10 9 8 8 8 8 8 7 7 5 6 5 6 7 9 9 10 11
85 78 75 76 78 78 78 73 70 70 69 69 70 61 42 37 41 34 19 10 9 10 10 10 11 12 11 9 8 8 8 8 7 10 12 12 10 10
85 80 81 79 77 74 73 69 68 67 64 66 59 46 45 45 36 19 12 10 12 13 10 11 12 13 12 10 10 11 11 12 15 11 10 10 9 11
86 82 82 77 76 71 67 65 65 63 61 58 50 49 49 42 21 13 14 15 16 16 14 11 13 18 19 16 20 15 16 17 13 11 10 10 12 14
89 85 82 84 77 71 71 71 69 63 59 54 53 51 40 21 14 14 16 18 18 18 17 16 20 25 23 19 13 16 19 14 10 10 12 13 17 23
78 82 86 77 74 74 74 72 66 58 59 54 48 34 19 15 14 14 15 16 17 16 17 15 18 18 19 17 11 6 16 12 10 12 15 21 25 29
85 85 79 80 76 74 75 66 57 59 55 49 36 18 14 14 13 12 11 12 14 15 14 10 10 12 14 16 13 9 12 14 12 15 24 26 26 22
84 84 86 79 70 74 71 59 59 55 47 38 19 14 14 13 11 9 9 10 11 12 12 8 8 11 12 14 12 11 14 15 18 22 23 22 17 15
91 89 80 70 71 74 61 58 55 44 37 19 15 14 14 11 9 8 8 9 9 8 9 10 9 10 11 13 13 12 15 23 21 17 13 21 25 25

GFSNE_250_rhum_060.txt.gz
RH
40 36 25 26 27 27 23 17 12 15 16 29 100 100 100 100 100 100 100 100 100 100 100 100 100 100 100 100 100 100 100 100 100 100 100 100 88 100
43 28 30 31 35 30 22 13 10 10 13 23 34 98 100 100 100 100 100 100 100 100 100 100 100 100 100 100 100 100 100 100 100 100 100 100 100 100
35 30 36 41 36 29 20 13 10 9 10 18 40 74 84 100 100 100 100 100 100 100 100 100 100 100 100 100 100 100 100 100 100 97 100 100 100 100
33 38 47 43 34 28 23 16 11 9 9 14 28 78 88 93 100 100 100 100 100 100 100 100 100 100 100 100 100 100 100 100 100 100 100 100 100 95
41 47 50 41 36 29 28 26 21 15 15 21 32 65 99 100 100 100 100 100 100 100 100 100 100 100 100 100 100 100 100 100 98 92 95 78 84 100
48 52 49 41 37 30 30 31 30 32 28 27 47 74 100 100 100 100 100 100 93 97 100 99 96 95 93 100 100 96 88 84 96 96 99 100 100 99
55 57 51 43 39 38 36 33 35 37 38 42 43 62 94 96 100 100 100 100 100 100 96 100 100 100 90 86 91 94 100 92 91 96 85 82 73 64
62 60 52 47 44 49 47 46 43 42 44 45 48 51 59 76 94 100 91 96 100 97 93 85 83 86 82 77 78 81 81 78 75 70 64 60 59 58
65 62 58 54 56 57 56 55 58 56 56 57 60 63 71 73 75 77 78 83 87 87 86 78 80 79 78 73 68 66 62 58 55 51 48 48 46 45
66 65 69 67 67 67 64 59 58 58 62 65 69 75 82 88 91 91 92 91 89 90 85 81 80 80 77 70 62 56 51 50 50 48 48 47 45 43
72 73 81 77 72 74 72 63 67 68 69 72 75 77 77 76 74 73 73 77 80 82 76 69 65 57 49 42 37 32 28 26 24 23 22 21 20 20
79 78 72 74 80 81 79 69 68 64 65 67 70 71 72 71 71 71 72 73 72 69 61 49 38 32 30 29 29 28 28 26 24 22 20 18 16 14
96 92 85 87 87 83 78 73 75 73 76 73 70 72 72 70 68 67 67 67 58 44 41 42 44 42 34 23 15 12 10 9 9 8 9 8 8 7
89 90 91 94 88 80 82 85 83 80 76 72 72 72 68 66 70 71 64 50 43 45 48 44 30 18 12 10 8 7 8 8 8 9 10 9 8 7
94 99 100 93 82 82 80 82 82 79 75 74 71 70 70 70 69 57 46 49 49 44 31 17 14 12 14 16 14 8 8 8 9 11 11 9 8 9
97 90 81 79 80 81 83 83 80 76 75 73 71 68 70 70 56 51 53 50 37 22 14 14 14 16 18 19 16 9 9 8 9 12 14 13 13 14
76 71 72 72 75 81 85 82 80 77 74 70 66 70 71 59 53 52 42 32 18 14 14 15 16 18 19 19 16 12 10 11 16 15 18 16 16 17
67 69 75 78 80 84 83 83 77 72 71 66 66 70 63 53 49 36 29 18 16 15 13 12 14 17 20 19 17 14 14 16 15 16 17 15 12 13
81 84 85 86 87 86 87 82 68 65 66 62 72 68 52 46 33 26 15 16 17 15 12 10 10 14 16 18 15 13 15 13 14 12 11 12 11 11
82 90 88 87 89 89 86 75 62 62 63 72 70 55 42 32 22 15 15 15 14 11 10 8 10 12 15 15 13 7 10 13 14 14 9 11 12 13
92 87 90 96 90 89 84 62 60 65 72 73 58 40 30 23 16 16 14 12 11 10 8 7 9 11 12 13 12 9 6 9 16 16 10 13 15 16
89 95 96 93 89 71 59 59 63 72 73 58 43 32 26 17 17 16 13 11 8 7 8 8 7 8 9 12 12 11 8 9 15 14 10 15 19 24
97 96 94 86 61 53 56 64 74 71 56 46 35 29 18 18 18 16 12 10 8 6 6 6 6 7 7 10 11 10 10 12 12 9 13 24 23 23

GFSNE_250_rhum_063.txt.gz
RH
85 64 63 46 37 33 32 28 27 29 34 29 21 13 12 11 13 24 70 100 100 100 100 100 100 100 100 99 100 100 100 100 100 100 100 100 100 100
73 69 52 41 35 37 36 37 38 38 34 28 21 14 12 10 13 24 94 100 100 100 100 100 100 99 100 100 100 100 100 100 100 100 100 100 100 99
68 64 56 39 40 40 39 42 46 46 38 31 26 20 15 10 15 39 98 100 100 100 100 100 100 100 100 100 100 100 96 100 100 100 100 100 100 100
75 68 44 40 47 40 45 49 53 48 42 38 31 28 21 20 28 48 100 100 100 100 100 100 100 100 100 100 100 100 100 100 100 100 100 100 100 100
81 63 45 44 41 44 53 52 57 52 48 43 39 35 37 30 36 74 96 100 100 100 100 100 100 100 100 100 100 100 100 100 100 99 100 100 100 100
67 50 41 41 43 53 56 56 63 58 52 48 46 45 45 48 49 67 86 100 100 100 100 100 93 100 100 100 100 100 98 99 100 96 97 100 100 100
51 47 39 43 46 61 58 66 65 61 61 55 48 45 46 54 56 57 76 100 100 100 100 100 93 100 90 83 90 98 100 100 94 86 91 97 87 91
51 42 41 45 65 65 64 69 67 73 77 69 63 52 47 46 51 61 72 81 94 100 100 100 100 97 97 99 97 92 84 82 87 87 83 83 86 84
46 41 44 63 64 67 70 75 80 82 78 81 80 69 64 62 58 60 67 74 85 91 96 91 100 100 98 94 89 88 88 92 91 83 79 78 75 70
47 44 62 65 68 79 80 91 92 89 90 86 80 75 68 72 74 77 80 88 94 91 86 88 87 85 82 83 81 77 75 75 73 69 64 61 58 57
49 62 70 72 76 79 84 91 95 92 90 79 71 66 65 66 68 71 70 72 75 78 77 77 78 77 74 71 67 66 66 68 65 57 49 41 35 33
60 70 71 81 86 89 97 100 91 81 78 69 65 60 61 64 65 64 64 65 70 72 71 72 69 64 57 54 51 47 46 49 50 49 45 42 39 35
68 73 82 94 99 100 100 95 88 84 71 67 63 63 67 66 66 64 64 65 65 64 68 66 55 49 51 51 50 48 46 41 34 24 20 16 13 11
79 89 96 97 98 98 91 82 72 68 67 70 71 75 75 76 65 58 64 64 61 64 60 52 54 50 45 37 29 19 15 13 14 13 16 16 14 13
80 87 88 90 87 75 70 66 64 70 76 79 82 80 78 74 61 57 59 58 62 58 49 46 44 37 29 16 14 12 11 12 15 16 19 19 15 13
79 78 71 66 64 66 68 67 74 81 86 86 83 82 80 67 54 55 56 62 60 48 40 34 28 18 15 16 17 12 11 12 12 16 20 17 13 13
64 66 68 67 70 78 82 84 90 93 91 86 81 78 62 52 53 60 63 61 51 36 28 19 15 16 17 17 16 12 10 11 12 14 17 16 16 18
78 78 77 83 92 88 90 94 93 92 91 88 82 61 48 51 61 63 58 46 39 30 16 13 14 16 19 16 11 10 8 9 12 13 14 17 16 17
96 94 98 100 95 97 99 98 97 98 96 84 66 49 51 63 70 58 42 37 30 18 16 14 12 13 12 10 8 8 8 9 11 10 10 12 12 8
97 96 94 95 99 98 100 100 98 92 74 62 54 58 65 71 56 44 37 28 18 19 16 12 9 9 9 9 8 6 8 9 8 8 7 10 11 10
89 91 94 93 92 98 99 94 80 61 55 58 62 64 65 52 44 38 31 18 21 19 14 10 9 8 7 8 8 6 5 8 10 10 11 11 10 11
84 87 90 93 98 94 82 63 51 51 56 56 54 48 45 42 39 34 20 23 21 18 15 13 10 8 8 7 6 6 7 9 13 14 10 8 9 12
85 89 96 97 85 70 55 50 49 50 49 48 45 46 38 33 37 21 24 24 22 19 18 15 15 12 11 10 9 8 7 7 8 9 10 14 13 13

GFSNE_250_rhum_066.txt.gz
RH
96 88 78 72 68 56 40 40 36 39 54 42 37 42 43 39 29 26 19 17 11 11 21 50 100 99 100 95 100 100 100 100 100 100 100 100 100 100
82 79 74 68 52 40 51 42 33 40 43 37 41 50 45 41 28 28 25 21 13 15 29 90 100 100 100 100 93 100 100 100 100 100 100 100 100 100
82 68 72 49 36 58 54 42 46 42 37 38 50 53 53 55 40 29 29 27 23 34 65 96 100 100 100 99 100 100 100 100 100 100 100 100 100 100
66 83 55 40 54 59 56 52 46 44 39 41 54 56 65 59 45 31 29 35 34 48 66 100 100 100 100 100 99 92 86 80 90 86 98 100 100 100
90 67 42 60 71 60 46 50 51 41 41 53 58 64 72 60 51 47 39 41 46 48 73 100 100 100 100 100 100 100 100 97 89 86 90 93 100 100
57 48 68 73 77 47 49 46 47 41 51 55 64 81 83 68 60 60 56 45 48 59 66 71 88 100 100 100 100 100 100 100 100 100 100 100 95 93
65 74 79 61 45 51 50 43 44 46 58 63 76 88 86 77 74 65 67 66 62 57 68 84 99 100 89 92 100 98 100 94 95 100 100 100 93 100
73 61 45 47 51 46 43 44 48 66 65 74 88 92 86 75 68 67 70 69 68 70 78 89 96 84 80 78 72 75 81 93 100 100 87 89 81 82
55 49 49 46 43 43 46 50 68 72 72 83 99 93 74 72 74 69 68 69 74 80 80 74 82 84 88 96 100 100 100 100 98 92 86 84 81 78
48 46 45 45 51 54 52 64 73 69 82 96 90 77 78 80 67 64 67 67 69 76 80 80 75 80 84 83 82 82 82 80 78 78 78 78 75 73
47 48 52 60 58 59 65 71 79 91 99 90 80 81 73 63 65 69 70 69 70 71 72 74 66 61 68 74 75 73 71 70 72 73 71 66 60 58
50 51 62 60 63 68 72 78 82 83 80 81 73 64 64 70 75 77 73 73 71 68 67 60 50 52 57 60 60 62 67 68 63 54 50 50 50 50
49 50 59 70 74 74 76 79 78 71 65 64 65 71 79 79 78 78 78 78 74 69 56 50 49 51 59 66 65 59 54 45 44 43 42 40 38 37
57 56 57 66 73 73 66 60 62 68 75 76 81 88 86 84 82 85 83 77 68 52 44 48 53 60 60 53 46 32 30 26 24 22 20 19 17 16
63 64 62 63 65 66 69 74 81 85 82 90 99 93 90 89 88 85 79 71 54 46 48 55 60 57 46 40 37 22 14 11 14 15 15 17 19 19
70 72 73 72 76 80 83 89 97 95 99 99 94 92 90 86 82 79 66 55 59 59 61 58 46 40 40 32 20 13 11 13 10 13 18 18 18 16
80 79 86 86 87 90 92 90 89 92 92 92 91 86 85 84 72 52 52 62 66 56 42 39 42 37 26 19 18 14 10 8 8 9 14 16 15 13
79 78 80 82 86 88 84 83 84 86 87 86 85 83 75 56 47 49 54 55 46 41 37 31 30 26 24 20 15 10 7 7 7 8 10 12 12 11
80 80 84 89 83 79 84 88 88 88 87 84 78 59 46 45 45 47 44 42 42 43 34 28 22 25 23 17 10 7 10 7 8 8 8 10 11 9
87 87 91 83 78 85 91 91 88 84 80 66 47 43 43 41 42 48 48 46 44 36 30 20 23 23 21 18 12 7 8 8 8 7 6 8 8 8
80 84 86 82 82 81 81 78 75 68 54 48 43 41 33 31 36 41 50 44 38 35 22 22 23 23 22 19 17 13 10 10 9 7 6 6 8 9
84 85 88 86 78 74 71 72 60 48 45 44 33 29 26 26 28 30 35 35 33 26 24 24 25 26 25 26 22 19 17 14 11 10 10 9 10 12
92 92 86 77 73 72 72 54 45 43 34 27 26 24 24 25 26 27 27 31 30 22 27 25 29 31 30 28 24 20 17 16 16 18 16 16 15 13

GFSNE_250_rhum_069.txt.gz
RH
100 100 100 100 93 83 79 71 74 74 71 48 55 52 37 41 37 40 42 40 37 28 21 17 15 13 17 32 93 99 100 100 100 100 100 100 100 100
100 100 91 87 85 78 74 69 68 65 42 53 51 54 42 42 39 49 44 43 39 30 24 20 18 22 35 70 100 100 100 100 100 100 100 100 100 87
94 87 79 74 76 76 70 73 61 43 51 50 50 45 41 40 42 52 55 47 44 36 29 27 26 33 47 71 100 100 100 100 100 100 98 100 100 100
76 67 66 65 65 68 79 77 45 54 49 48 44 46 40 41 56 59 63 64 47 48 38 36 39 47 76 87 82 82 91 98 99 100 100 100 100 100
71 63 56 56 67 82 57 54 55 45 41 45 44 42 40 48 64 67 71 65 65 56 47 53 54 58 72 72 79 83 92 95 80 80 84 82 87 86
59 48 61 72 74 61 53 58 40 47 43 40 41 41 49 61 67 71 72 68 64 62 55 54 60 69 72 76 85 96 100 92 99 100 99 100 88 82
51 63 72 70 59 66 58 44 43 41 39 41 48 52 57 66 71 77 71 72 67 65 62 60 63 65 64 72 81 93 100 97 100 100 100 100 100 100
74 84 75 66 60 50 46 47 40 44 43 52 54 55 64 74 84 78 76 71 66 63 65 70 74 76 80 85 87 85 82 83 85 87 89 91 88 92
87 74 72 65 52 46 48 45 49 54 53 60 62 69 88 80 83 82 74 65 64 68 71 74 79 80 78 77 82 90 91 86 77 74 71 70 69 72
90 81 60 54 50 48 46 48 50 64 64 65 72 79 83 82 77 66 66 71 71 74 78 77 78 80 81 78 78 75 69 62 66 66 66 66 64 63
90 71 63 53 41 44 48 48 48 60 72 80 84 84 76 68 66 70 75 78 79 81 80 81 80 82 84 82 69 51 44 45 48 51 54 59 66 66
83 72 61 48 50 54 55 56 59 66 68 64 65 68 70 72 77 79 78 75 75 82 85 85 82 82 82 68 54 46 42 45 51 56 59 62 60 58
81 72 57 61 63 62 60 62 63 66 68 71 75 75 74 75 74 76 80 79 79 85 84 79 77 72 58 55 51 49 47 50 54 53 49 46 45 43
78 74 62 67 73 67 68 68 70 70 71 75 77 78 74 74 79 81 80 83 81 77 77 70 61 55 54 56 55 48 48 39 34 30 30 31 28 25
81 82 74 70 70 78 76 73 75 79 81 80 78 73 74 76 79 82 81 78 73 62 50 50 52 55 54 45 42 34 30 26 25 21 20 23 23 21
92 83 73 75 76 78 84 86 86 83 86 81 75 76 77 79 80 78 70 59 44 39 44 49 50 45 42 40 37 29 24 19 16 20 23 22 19 15
94 87 73 81 89 95 100 100 94 90 87 84 80 77 74 75 73 64 45 37 39 38 34 42 51 50 42 33 30 22 17 22 22 16 14 12 11 10
97 91 73 78 88 94 100 98 91 88 87 84 74 70 67 66 55 39 37 35 30 26 27 30 31 41 44 35 26 17 21 24 18 13 11 11 8 7
96 81 72 78 88 100 97 93 90 84 82 75 68 66 65 59 41 35 34 27 25 24 23 23 26 31 34 34 17 23 30 24 19 15 13 10 8 7
93 85 85 87 100 94 88 82 79 81 75 67 67 65 54 40 36 29 26 24 23 22 21 22 26 29 33 26 23 21 34 28 23 20 16 11 10 8
89 91 92 99 98 88 79 80 79 73 69 70 63 46 41 35 26 24 22 22 22 22 22 23 25 29 23 28 27 30 36 34 27 20 20 18 14 10
87 91 97 99 86 85 87 82 78 76 76 59 42 38 30 25 23 21 21 22 22 22 24 25 27 21 24 29 30 38 39 44 45 34 27 22 18 18
92 98 99 90 91 91 91 86 83 75 53 40 36 27 24 21 21 21 21 21 22 23 26 27 20 18 27 29 41 53 62 75 80 88 66 50 50 38